Metz-Nancy-Lorraine, France

9:18 PM CEST on April 25, 2017 (GMT +0200)
Metz-Nancy / Lorraine

Weather History for LFJL - March, 2013

Change the Weather History Date:

Wednesday, March 6, 2013

  Actual Average Record
Temperature  
Mean Temperature 50 °F -  
Max Temperature 62 °F - - ()
Min Temperature 39 °F - - ()
Degree Days  
Heating Degree Days 14    
Moisture  
Dew Point 35 °F    
Average Humidity 61    
Maximum Humidity 81    
Minimum Humidity 30    
Precipitation  
Precipitation 0.00 in - - ()
Sea Level Pressure  
Sea Level Pressure 29.58 in    
Wind  
Wind Speed 7 mph ()    
Max Wind Speed 15 mph    
Max Gust Speed -    
Visibility 5.5 miles    
Events Rain    
T = Trace of Precipitation, MM = Missing Value Source: Averaged Metar Reports

Daily Weather History Graph

Daily Weather History Graph

Search for Another Location

Airport or City:

Trip Planner

Search our weather history database for the weather conditions in past years. The results will help you decide how hot, cold, wet, or windy it might be!

Date:

Astronomy

Mar. 06, 2013 Rise Set
Actual Time 7:06 AM CET 6:26 PM CET
Civil Twilight 6:35 AM CET 6:57 PM CET
Nautical Twilight 5:58 AM CET 7:34 PM CET
Astronomical Twilight 5:21 AM CET 8:11 PM CET
Moon 3:24 AM CET (3/6) 12:28 PM CET (3/6)
Length of Visible Light 12h 22m
Length of Day
11h 19m
Waning Crescent, 33% of the Moon is Illuminated
Mar 6
Waning Crescent
Mar 11
New
Mar 19
First Quarter
Mar 27
Full
Apr 3
Last Quarter

Hourly Weather History & Observations

Time (CET) Temp. Windchill Dew Point Humidity Pressure Visibility Wind Dir Wind Speed Gust Speed Precip Events Conditions
12:00 AM 41.0 °F 33.9 °F 32.0 °F 70% 29.71 in 5.0 mi ESE 12.7 mph - N/A   Unknown
12:30 AM 41.0 °F 33.5 °F 32.0 °F 70% 29.68 in 5.0 mi East 13.8 mph - N/A   Unknown
1:00 AM 39.2 °F 32.0 °F 32.0 °F 75% 29.71 in 5.0 mi ESE 11.5 mph - N/A   Unknown
1:30 AM 41.0 °F 33.5 °F 32.0 °F 70% 29.68 in 5.0 mi East 13.8 mph - N/A   Unknown
2:00 AM 41.0 °F 33.9 °F 32.0 °F 70% 29.68 in 5.0 mi ESE 12.7 mph - N/A   Unknown
2:30 AM 41.0 °F 36.4 °F 32.0 °F 70% 29.68 in 5.0 mi East 6.9 mph - N/A   Unknown
3:00 AM 41.0 °F 33.1 °F 33.8 °F 76% 29.68 in 5.0 mi East 15.0 mph - N/A   Unknown
3:30 AM 42.8 °F 35.8 °F 33.8 °F 70% 29.65 in 5.0 mi East 13.8 mph - N/A   Unknown
4:00 AM 42.8 °F 38.6 °F 32.0 °F 66% 29.65 in 5.6 mi ENE 6.9 mph - N/A   Unknown
4:30 AM 41.0 °F 35.2 °F 32.0 °F 70% 29.65 in 5.0 mi ESE 9.2 mph - N/A   Unknown
5:00 AM 41.0 °F 35.8 °F 32.0 °F 70% 29.65 in 5.0 mi ESE 8.1 mph - N/A   Unknown
5:30 AM 39.2 °F 35.9 °F 32.0 °F 75% 29.65 in 5.0 mi East 4.6 mph - N/A   Unknown
6:00 AM 39.2 °F 34.2 °F 33.8 °F 81% 29.65 in 4.3 mi ENE 6.9 mph - N/A   Unknown
6:30 AM 39.2 °F 37.0 °F 32.0 °F 75% 29.62 in 4.3 mi North 3.5 mph - N/A   Unknown
7:00 AM 39.2 °F - 32.0 °F 75% 29.62 in 5.0 mi Variable 2.3 mph - N/A   Unknown
7:30 AM 39.2 °F 37.0 °F 32.0 °F 75% 29.62 in 4.3 mi Variable 3.5 mph - N/A   Unknown
8:00 AM 41.0 °F 38.0 °F 32.0 °F 70% 29.62 in 4.3 mi NE 4.6 mph - N/A   Unknown
8:30 AM 39.2 °F 35.0 °F 33.8 °F 81% 29.62 in 3.7 mi NE 5.8 mph - N/A   Unknown
9:00 AM 41.0 °F 38.0 °F 33.8 °F 76% 29.62 in 4.3 mi NNE 4.6 mph - N/A   Unknown
9:30 AM 42.8 °F 41.1 °F 35.6 °F 76% 29.59 in 3.7 mi Variable 3.5 mph - N/A   Unknown
10:00 AM 50.0 °F - 33.8 °F 54% 29.59 in 6.2 mi ENE 8.1 mph - N/A   Unknown
10:30 AM 50.0 °F - 33.8 °F 54% 29.59 in 5.6 mi NE 3.5 mph - N/A   Unknown
11:00 AM 50.0 °F - 35.6 °F 58% 29.59 in 5.0 mi NNE 5.8 mph - N/A   Unknown
11:30 AM 51.8 °F - 37.4 °F 58% 29.59 in 5.6 mi NNE 6.9 mph - N/A   Unknown
12:00 PM 55.4 °F - 37.4 °F 51% 29.59 in 6.2 mi NE 4.6 mph - N/A   Unknown
12:30 PM 57.2 °F - 35.6 °F 44% 29.56 in 6.2 mi NE 5.8 mph - N/A   Unknown
1:00 PM 59.0 °F - 37.4 °F 45% 29.56 in 6.2 mi NNE 8.1 mph - N/A   Unknown
1:30 PM 57.2 °F - 35.6 °F 44% 29.53 in 6.2 mi NNE 6.9 mph - N/A   Unknown
2:00 PM 60.8 °F - 35.6 °F 39% 29.53 in 6.2 mi NNE 8.1 mph - N/A   Unknown
2:30 PM 60.8 °F - 33.8 °F 36% 29.53 in 6.2 mi NE 5.8 mph - N/A   Unknown
3:00 PM 62.6 °F - 30.2 °F 30% 29.50 in 6.2 mi ENE 5.8 mph - N/A   Unknown
3:30 PM 60.8 °F - 30.2 °F 31% 29.50 in 6.2 mi NE 5.8 mph - N/A   Unknown
4:00 PM 60.8 °F - 33.8 °F 36% 29.50 in 6.2 mi NE 6.9 mph - N/A   Unknown
4:30 PM 60.8 °F - 37.4 °F 42% 29.50 in 6.2 mi ENE 5.8 mph - N/A   Unknown
5:00 PM 59.0 °F - 37.4 °F 45% 29.50 in 6.2 mi East 4.6 mph - N/A   Unknown
5:30 PM 57.2 °F - 41.0 °F 55% 29.50 in 6.2 mi East 4.6 mph - N/A   Unknown
6:00 PM 55.4 °F - 39.2 °F 54% 29.50 in 6.2 mi East 4.6 mph - N/A   Unknown
6:30 PM 53.6 °F - 39.2 °F 58% 29.50 in 6.2 mi East 3.5 mph - N/A   Unknown
7:00 PM 53.6 °F - 37.4 °F 54% 29.50 in 6.2 mi ENE 3.5 mph - N/A   Unknown
7:30 PM 53.6 °F - 37.4 °F 54% 29.50 in 6.2 mi East 5.8 mph - N/A   Unknown
8:00 PM 51.8 °F - 37.4 °F 58% 29.50 in 6.2 mi ESE 6.9 mph - N/A   Unknown
8:30 PM 51.8 °F - 37.4 °F 58% 29.50 in 6.2 mi SE 4.6 mph - N/A   Unknown
9:00 PM 51.8 °F - 37.4 °F 58% 29.53 in 6.2 mi ESE 2.3 mph - N/A   Unknown
9:30 PM 51.8 °F - 37.4 °F 58% 29.53 in 6.2 mi SSE 5.8 mph - N/A   Unknown
10:00 PM 50.0 °F - 37.4 °F 62% 29.53 in 6.2 mi East 2.3 mph - N/A   Unknown
10:30 PM 48.2 °F - 37.4 °F 66% 29.53 in 6.2 mi Variable 3.5 mph - N/A   Unknown
11:00 PM 48.2 °F - 41.0 °F 76% 29.53 in 6.2 mi Calm Calm - N/A Rain Light Rain
11:30 PM 48.2 °F - 39.2 °F 71% 29.53 in 5.6 mi SE 3.5 mph - N/A   Unknown